Location: Twillingate Astronomical Observatory
(49.6173°N, 54.7580°W)
Time: 12:56:55
(UTC-02:-30)

Amateur Radio Satellites - All Passes

Search period start: 24 October 2014 12:26
Search period end: 25 October 2014 12:26
Location: Twillingate Astronomical Observatory, 49.6173°N, 54.7580°W

Satellite Date Start Highest point End Downlink Frequencies (MHz)
Time Altitude Azimuth
ITAMSAT 1 24 Oct 12:30:06 12:32:24 13° 51° (NE) 12:34:41 435.822 SSB
Sapphire 24 Oct 12:47:41 12:53:06 61° 50° (NE) 12:58:28 437.095 MHz 1200 baud AX-25 AFSK
Gurwin Techsat 1B 24 Oct 12:47:56 12:48:46 10° 48° (NE) 12:49:35 435.225 FM
FUNcube-1 24 Oct 12:55:45 12:58:58 21° 299° (WNW) 13:02:08 145.950 - 145.970 MHz USB
Oscar 19 24 Oct 12:56:14 13:00:58 39° 65° (ENE) 13:05:43 437.125 CW, 437.150 USB
HO-68 24 Oct 13:01:04 13:05:27 18° 316° (NW) 13:09:49 435.675 MHz FM
Oscar 11 24 Oct 13:01:33 13:02:17 10° 306° (NW) 13:03:01 145.825 FM, Beacon 2401.500 USB
PCSat 24 Oct 13:10:20 13:15:49 89° 55° (NE) 13:21:15 145.825 MHz
ISS 24 Oct 13:10:38 13:12:39 15° 138° (SE) 13:14:41 145.800 FM
AO-27 24 Oct 13:13:01 13:17:19 27° 60° (ENE) 13:21:38 436.795 MHz FM
AO-7 24 Oct 13:16:03 13:20:01 15° 31° (NNE) 13:24:00 29.400 - 29.500 MHz
Saudisat 1A 24 Oct 13:39:00 13:41:12 13° 13° (NNE) 13:43:24 436.775 MHz
Oscar 16 24 Oct 13:41:22 13:46:33 89° 74° (ENE) 13:51:44 437.025 USB, Beacon 2401.1428
AO-Echo 24 Oct 13:41:28 13:46:12 49° 68° (ENE) 13:51:07 ?
JAS-1B 24 Oct 13:50:56 13:56:49 86° 73° (ENE) 14:02:32 435.800 - 435.900 CW/SSB
Uribyol 2 24 Oct 13:59:55 14:05:03 62° 70° (ENE) 14:10:14 436.500 FM
SO-50 24 Oct 14:02:07 14:06:37 70° 126° (SE) 14:11:16 436.795 FM
ITAMSAT 1 24 Oct 14:05:47 14:10:56 66° 71° (ENE) 14:16:09 435.822 SSB
KITSAT 1 24 Oct 14:15:06 14:23:07 65° 314° (NW) 14:31:12 435.175 FM
Gurwin Techsat 1B 24 Oct 14:22:27 14:27:34 51° 68° (ENE) 14:32:43 435.225 FM
Sapphire 24 Oct 14:31:40 14:36:11 27° 250° (WSW) 14:40:40 437.095 MHz 1200 baud AX-25 AFSK
TMSAT-1 24 Oct 14:34:05 14:39:10 48° 68° (ENE) 14:44:16 436.925 FM
Oscar 19 24 Oct 14:35:41 14:40:22 34° 264° (W) 14:45:04 437.125 CW, 437.150 USB
ISS 24 Oct 14:45:33 14:48:52 66° 156° (SSE) 14:52:12 145.800 FM
AO-27 24 Oct 14:51:26 14:56:32 54° 259° (W) 15:01:41 436.795 MHz FM
PCSat 24 Oct 14:55:05 14:58:30 17° 255° (WSW) 15:01:54 145.825 MHz
AO-7 24 Oct 15:03:07 15:10:41 42° 55° (NE) 15:18:17 29.400 - 29.500 MHz
Oscar 10/S400 24 Oct 15:09:55 15:25:55 33° 154° (SSE) 15:54:24 145.825 - 145.975 CW/USB, Beacon 145.810 USB
Saudisat 1A 24 Oct 15:18:05 15:22:05 32° 37° (NE) 15:26:05 436.775 MHz
AO-Echo 24 Oct 15:21:10 15:25:15 26° 268° (W) 15:29:28 ?
Oscar 16 24 Oct 15:23:51 15:26:38 14° 273° (W) 15:29:24 437.025 USB, Beacon 2401.1428
Uosat F 24 Oct 15:26:44 15:30:51 26° 60° (ENE) 15:35:00 435.120 FM
UOSAT-12 24 Oct 15:28:39 15:33:10 52° 123° (ESE) 15:37:46 437.025 FM, 437.400 FM
Uribyol 2 24 Oct 15:40:59 15:44:58 22° 269° (W) 15:48:59 436.500 FM
SO-50 24 Oct 15:43:40 15:47:36 27° 328° (NNW) 15:51:40 436.795 FM
JAS-1B 24 Oct 15:45:09 15:48:24 15° 273° (W) 15:51:36 435.800 - 435.900 CW/SSB
ITAMSAT 1 24 Oct 15:47:04 15:50:55 21° 270° (W) 15:54:48 435.822 SSB
Gurwin Techsat 1B 24 Oct 16:03:20 16:07:48 27° 267° (W) 16:12:18 435.225 FM
JAS-2 24 Oct 16:04:46 16:09:31 23° 51° (NE) 16:14:41 435.800 - 435.900 CW/SSB, 435.910 FM
KITSAT 1 24 Oct 16:13:16 16:20:09 29° 340° (NNW) 16:27:03 435.175 FM
TMSAT-1 24 Oct 16:14:46 16:19:19 28° 267° (W) 16:23:53 436.925 FM
ISS 24 Oct 16:22:19 16:25:38 59° 356° (N) 16:28:57 145.800 FM
AO-7 24 Oct 16:55:09 17:03:16 59° 257° (WSW) 17:11:27 29.400 - 29.500 MHz
Hamsat 24 Oct 16:57:09 17:00:23 22° 63° (ENE) 17:03:37 145.90 MHz
Saudisat 1A 24 Oct 16:57:34 17:01:51 50° 237° (WSW) 17:06:07 436.775 MHz
OPAL 24 Oct 17:04:17 17:05:18 11° 87° (E) 17:06:18 ?
Uosat F 24 Oct 17:04:28 17:09:22 52° 260° (W) 17:14:19 435.120 FM
UOSAT-12 24 Oct 17:09:16 17:13:32 34° 324° (NW) 17:17:52 437.025 FM, 437.400 FM
SO-50 24 Oct 17:27:16 17:29:43 14° 352° (N) 17:32:12 436.795 FM
JAS-2 24 Oct 17:47:35 17:53:39 87° 255° (WSW) 18:00:37 435.800 - 435.900 CW/SSB, 435.910 FM
ISS 24 Oct 17:59:09 18:02:31 82° 16° (NNE) 18:05:52 145.800 FM
KITSAT 1 24 Oct 18:11:52 18:18:23 26° 10° (N) 18:24:54 435.175 FM
HO-68 24 Oct 18:16:10 18:18:26 12° 36° (NE) 18:20:42 435.675 MHz FM
SO-67 24 Oct 18:27:39 18:30:22 22° 66° (ENE) 18:33:05 435.3500 MHz FM
Hamsat 24 Oct 18:32:03 18:36:06 45° 261° (W) 18:40:08 145.90 MHz
OPAL 24 Oct 18:40:05 18:45:05 73° 106° (ESE) 18:50:01 ?
STRAND 1 24 Oct 18:46:19 18:49:13 15° 87° (E) 18:52:07 ?
UOSAT-12 24 Oct 18:52:22 18:55:04 15° 347° (NNW) 18:57:48 437.025 FM, 437.400 FM
AO-7 24 Oct 18:54:47 18:57:57 12° 279° (W) 19:01:08 29.400 - 29.500 MHz
SO-50 24 Oct 19:09:09 19:12:10 16° 17° (NNE) 19:15:13 436.795 FM
JAS-2 24 Oct 19:35:56 19:39:56 18° 278° (W) 19:44:14 435.800 - 435.900 CW/SSB, 435.910 FM
ISS 24 Oct 19:36:04 19:38:59 28° 215° (SW) 19:41:54 145.800 FM
HO-68 24 Oct 19:57:44 20:04:16 40° 59° (ENE) 20:10:50 435.675 MHz FM
SO-67 24 Oct 20:00:11 20:03:14 29° 264° (W) 20:06:17 435.3500 MHz FM
UKube-1 24 Oct 20:07:25 20:08:43 11° 53° (NE) 20:10:01 145.840 MHz, 145.915 MHz
KITSAT 1 24 Oct 20:08:13 20:15:59 47° 38° (NE) 20:23:43 435.175 FM
OPAL 24 Oct 20:19:54 20:23:28 20° 306° (NW) 20:27:01 ?
STRAND 1 24 Oct 20:23:55 20:29:07 87° 286° (WNW) 20:34:17 ?
UOSAT-12 24 Oct 20:34:26 20:37:07 15° 12° (NNE) 20:39:48 437.025 FM, 437.400 FM
FUNcube-1 24 Oct 20:46:19 20:47:41 11° 55° (NE) 20:49:02 145.950 - 145.970 MHz USB
Oscar 11 24 Oct 20:46:52 20:50:06 21° 62° (ENE) 20:53:21 145.825 FM, Beacon 2401.500 USB
SO-50 24 Oct 20:49:22 20:53:57 42° 40° (NE) 20:58:34 436.795 FM
RS-15 24 Oct 21:06:42 21:13:50 20° 98° (E) 21:20:54 29.354 - 29.394 USB, Beacon 29.352 USB
ZACube-1 24 Oct 21:34:43 21:38:37 29° 65° (ENE) 21:42:29 437.345 MHz
UKube-1 24 Oct 21:39:47 21:44:07 72° 73° (ENE) 21:48:30 145.840 MHz, 145.915 MHz
HO-68 24 Oct 21:44:52 21:51:49 53° 259° (W) 21:58:51 435.675 MHz FM
KITSAT 1 24 Oct 22:03:48 22:11:43 61° 241° (WSW) 22:19:36 435.175 FM
STRAND 1 24 Oct 22:04:28 22:07:36 17° 306° (NW) 22:10:43 ?
UOSAT-12 24 Oct 22:14:22 22:18:40 33° 36° (NE) 22:22:56 437.025 FM, 437.400 FM
FUNcube-1 24 Oct 22:18:43 22:23:16 70° 73° (ENE) 22:27:46 145.950 - 145.970 MHz USB
Oscar 11 24 Oct 22:21:46 22:25:59 51° 260° (W) 22:30:13 145.825 FM, Beacon 2401.500 USB
SO-50 24 Oct 22:30:01 22:34:32 40° 240° (WSW) 22:39:05 436.795 FM
ZACube-1 24 Oct 23:10:36 23:14:53 39° 263° (W) 23:19:09 437.345 MHz
RS-15 24 Oct 23:13:14 23:24:06 73° 122° (ESE) 23:34:59 29.354 - 29.394 USB, Beacon 29.352 USB
MaSat-1 24 Oct 23:17:44 23:19:18 12° 106° (ESE) 23:20:49 437.345 MHz
UKube-1 24 Oct 23:18:27 23:20:49 14° 271° (W) 23:23:12 145.840 MHz, 145.915 MHz
UOSAT-12 24 Oct 23:54:27 23:59:05 54° 236° (WSW) 00:03:38 437.025 FM, 437.400 FM
FUNcube-1 24 Oct 23:57:20 00:00:06 16° 271° (W) 00:02:53 145.950 - 145.970 MHz USB
KITSAT 1 25 Oct 00:01:49 00:05:28 14° 262° (W) 00:09:06 435.175 FM
MaSat-1 25 Oct 00:50:31 00:54:33 79° 301° (WNW) 00:58:10 437.345 MHz
RS-15 25 Oct 01:26:41 01:37:12 50° 330° (NNW) 01:47:54 29.354 - 29.394 USB, Beacon 29.352 USB
JAS-1B 25 Oct 01:29:16 01:33:52 19° 90° (E) 01:38:56 435.800 - 435.900 CW/SSB
AO-Echo 25 Oct 01:45:57 01:48:09 13° 85° (E) 01:50:21 ?
Oscar 16 25 Oct 01:49:17 01:53:19 23° 92° (E) 01:57:19 437.025 USB, Beacon 2401.1428
Uribyol 2 25 Oct 02:09:32 02:12:38 16° 88° (E) 02:15:43 436.500 FM
ITAMSAT 1 25 Oct 02:15:24 02:18:43 17° 88° (E) 02:22:01 435.822 SSB
MaSat-1 25 Oct 02:28:57 02:30:40 13° 319° (NW) 02:32:18 437.345 MHz
Gurwin Techsat 1B 25 Oct 02:35:37 02:38:26 14° 86° (E) 02:41:14 435.225 FM
Oscar 19 25 Oct 02:42:07 02:47:12 61° 102° (ESE) 02:52:15 437.125 CW, 437.150 USB
TMSAT-1 25 Oct 02:47:02 02:49:36 14° 86° (E) 02:52:09 436.925 FM
AO-27 25 Oct 03:00:00 03:04:55 39° 97° (E) 03:09:47 436.795 MHz FM
JAS-1B 25 Oct 03:18:42 03:25:10 89° 107° (ESE) 03:32:54 435.800 - 435.900 CW/SSB
AO-Echo 25 Oct 03:22:27 03:27:47 77° 104° (ESE) 03:33:07 ?
Oscar 16 25 Oct 03:28:01 03:33:03 57° 290° (WNW) 03:38:03 437.025 USB, Beacon 2401.1428
Sapphire 25 Oct 03:35:18 03:39:15 21° 108° (ESE) 03:43:14 437.095 MHz 1200 baud AX-25 AFSK
RS-15 25 Oct 03:42:43 03:52:39 37° 3° (N) 04:02:48 29.354 - 29.394 USB, Beacon 29.352 USB
Uribyol 2 25 Oct 03:47:33 03:52:48 84° 287° (WNW) 03:58:00 436.500 FM
ITAMSAT 1 25 Oct 03:53:36 03:58:51 80° 287° (WNW) 04:04:04 435.822 SSB
PCSat 25 Oct 03:56:47 04:01:33 33° 112° (ESE) 04:06:21 145.825 MHz
Gurwin Techsat 1B 25 Oct 04:13:50 04:19:11 88° 105° (ESE) 04:24:31 435.225 FM
OPAL 25 Oct 04:21:13 04:25:50 35° 62° (ENE) 04:30:25 ?
Oscar 19 25 Oct 04:22:11 04:26:10 24° 301° (WNW) 04:30:09 437.125 CW, 437.150 USB
TMSAT-1 25 Oct 04:25:00 04:30:21 84° 105° (ESE) 04:35:40 436.925 FM
AO-27 25 Oct 04:39:39 04:44:23 35° 296° (WNW) 04:49:06 436.795 MHz FM
AO-7 25 Oct 04:51:32 04:59:13 39° 97° (E) 05:06:50 29.400 - 29.500 MHz
JAS-2 25 Oct 04:53:12 04:57:28 15° 81° (E) 05:01:45 435.800 - 435.900 CW/SSB, 435.910 FM
AO-Echo 25 Oct 05:02:11 05:06:00 21° 303° (WNW) 05:09:49 ?
Uosat F 25 Oct 05:07:45 05:12:22 35° 96° (E) 05:16:58 435.120 FM
Oscar 16 25 Oct 05:09:56 05:11:22 11° 311° (NW) 05:12:48 437.025 USB, Beacon 2401.1428
JAS-1B 25 Oct 05:10:35 05:15:16 22° 305° (NW) 05:20:28 435.800 - 435.900 CW/SSB
Sapphire 25 Oct 05:16:42 05:22:07 75° 307° (NW) 05:27:35 437.095 MHz 1200 baud AX-25 AFSK
Uribyol 2 25 Oct 05:28:25 05:31:32 16° 306° (NW) 05:34:38 436.500 FM
ITAMSAT 1 25 Oct 05:34:35 05:37:34 16° 307° (NW) 05:40:32 435.822 SSB
PCSat 25 Oct 05:39:30 05:44:47 51° 313° (NW) 05:50:07 145.825 MHz
Gurwin Techsat 1B 25 Oct 05:55:00 05:58:30 18° 305° (NW) 06:01:59 435.225 FM
RS-15 25 Oct 05:56:56 06:07:48 57° 36° (NE) 06:19:03 29.354 - 29.394 USB, Beacon 29.352 USB
OPAL 25 Oct 05:59:53 06:04:41 39° 260° (W) 06:09:27 ?
STRAND 1 25 Oct 06:05:52 06:10:27 34° 64° (ENE) 06:15:05 ?
TMSAT-1 25 Oct 06:06:03 06:09:39 19° 304° (NW) 06:13:15 436.925 FM
Hamsat 25 Oct 06:13:31 06:16:53 23° 93° (E) 06:20:14 145.90 MHz
JAS-2 25 Oct 06:36:10 06:43:52 65° 101° (E) 06:51:39 435.800 - 435.900 CW/SSB, 435.910 FM
AO-7 25 Oct 06:44:15 06:52:22 60° 298° (WNW) 07:00:30 29.400 - 29.500 MHz
Uosat F 25 Oct 06:46:33 06:51:11 37° 295° (WNW) 06:55:48 435.120 FM
Sapphire 25 Oct 07:02:17 07:06:28 22° 330° (NNW) 07:10:39 437.095 MHz 1200 baud AX-25 AFSK
Saudisat 1A 25 Oct 07:09:42 07:12:06 15° 111° (ESE) 07:14:31 436.775 MHz
SO-67 25 Oct 07:19:44 07:21:41 14° 90° (E) 07:23:39 435.3500 MHz FM
PCSat 25 Oct 07:25:52 07:29:29 18° 336° (NNW) 07:33:07 145.825 MHz
STRAND 1 25 Oct 07:44:47 07:49:35 40° 263° (W) 07:54:26 ?
Hamsat 25 Oct 07:49:03 07:52:59 40° 291° (WNW) 07:56:56 145.90 MHz
RS-15 25 Oct 08:09:38 08:20:27 61° 242° (WSW) 08:31:44 29.354 - 29.394 USB, Beacon 29.352 USB
JAS-2 25 Oct 08:21:40 08:28:29 37° 300° (WNW) 08:35:27 435.800 - 435.900 CW/SSB, 435.910 FM
AO-7 25 Oct 08:38:10 08:43:36 20° 321° (NW) 08:49:04 29.400 - 29.500 MHz
Saudisat 1A 25 Oct 08:46:39 08:51:03 87° 310° (NW) 08:55:30 436.775 MHz
Sapphire 25 Oct 08:49:46 08:52:01 12° 356° (N) 08:54:17 437.095 MHz 1200 baud AX-25 AFSK
SO-67 25 Oct 08:51:36 08:54:55 45° 288° (WNW) 08:58:14 435.3500 MHz FM
MaSat-1 25 Oct 08:57:08 08:59:51 52° 55° (NE) 09:02:19 437.345 MHz
HO-68 25 Oct 09:07:59 09:13:48 26° 91° (E) 09:19:34 435.675 MHz FM
PCSat 25 Oct 09:13:00 09:15:13 12° 3° (N) 09:17:27 145.825 MHz
Oscar 11 25 Oct 10:05:27 10:08:46 21° 92° (E) 10:12:04 145.825 FM, Beacon 2401.500 USB
JAS-2 25 Oct 10:09:40 10:11:29 11° 322° (NW) 10:13:19 435.800 - 435.900 CW/SSB, 435.910 FM
RS-15 25 Oct 10:24:42 10:30:22 16° 265° (W) 10:36:10 29.354 - 29.394 USB, Beacon 29.352 USB
Saudisat 1A 25 Oct 10:27:48 10:31:15 22° 331° (NNW) 10:34:42 436.775 MHz
Sapphire 25 Oct 10:34:15 10:37:47 17° 22° (NNE) 10:41:19 437.095 MHz 1200 baud AX-25 AFSK
KITSAT 1 25 Oct 10:48:04 10:50:21 11° 96° (E) 10:52:38 435.175 FM
HO-68 25 Oct 10:55:00 11:02:13 76° 291° (WNW) 11:09:23 435.675 MHz FM
ZACube-1 25 Oct 10:55:33 10:59:19 29° 95° (E) 11:03:00 437.345 MHz
PCSat 25 Oct 10:56:42 11:00:49 21° 29° (NNE) 11:04:54 145.825 MHz
UKube-1 25 Oct 10:59:39 11:04:03 73° 103° (ESE) 11:08:24 145.840 MHz, 145.915 MHz
FUNcube-1 25 Oct 11:39:54 11:44:13 81° 103° (ESE) 11:48:24 145.950 - 145.970 MHz USB
Oscar 11 25 Oct 11:41:03 11:45:12 46° 290° (WNW) 11:49:18 145.825 FM, Beacon 2401.500 USB
Saudisat 1A 25 Oct 12:10:44 12:12:25 12° 355° (N) 12:14:06 436.775 MHz
